Regional Weather Roundup
Issued by NWS

Home | Current Version | Previous Version | Graphics & Text | Print | Product List | Glossary On
Versions: 1 2 3 4 5 6 7 8 9 10 11 12 13 14 15 16 17 18 19 20 21 22 23 24 25 26 27 28
000
ASUS45 KTFX 061310
RWRMT
MONTANA REGIONAL WEATHER ROUNDUP
NATIONAL WEATHER SERVICE GREAT FALLS MT
600 AM MST TUE DEC 06 2016

NOTE: "FAIR" INDICATES FEW OR NO CLOUDS BELOW 12000 FEET WITH NO
SIGNIFICANT WEATHER AND/OR OBSTRUCTIONS TO VISIBILITY.

MTZ001>007-043-061400-
WEST OF THE DIVIDE

CITY           SKY/WX    TMP DP  RH WIND       PRES   REMARKS
KALISPELL      MOCLDY    15   8  73 N13       29.99S WCI   1
MISSOULA       MOCLDY    21  12  68 E15       29.95F WCI   8
BUTTE          CLOUDY     7   0  73 S5        29.84F
MULLAN PASS    CLOUDY     9   6  88 SE8       29.73F FOG     WCI  -3
ANACONDA         N/A      7   0  72 S3        29.88S
DEER LODGE       N/A      5   1  85 CALM      29.92F
EUREKA           N/A     10   7  85 CALM      30.05S
HAMILTON         N/A     16   7  67 S3        29.92S
LIBBY            N/A     16  12  86 CALM      30.02S
PLAINS           N/A     15   7  71 CALM      29.99F
$$

MTZ008-052>055-061400-
SOUTHWEST MONTANA

CITY           SKY/WX    TMP DP  RH WIND       PRES   REMARKS
BOZEMAN        CLOUDY    13   8  81 N8        29.95S WCI   2
DILLON         CLOUDY     4  -4  69 S7        29.86F WCI  -8
W YELLOWSTONE  FLURRIES   0  -4  85 CALM      29.83F
ENNIS          CLEAR      3  -2  78 SE7       29.91S WCI  -9
THREE FORKS      N/A     12 -30  13 N6        29.96S WCI   3
TWIN BRIDGES     N/A      7  -5  57 CALM      29.89F
$$

MTZ009-010-012-014-046-048-049-054-061400-
EAST SLOPES AND CENTRAL MONTANA

CITY           SKY/WX    TMP DP  RH WIND       PRES   REMARKS
CUT BANK       CLOUDY    -3  -8  79 N17       30.11S WCI -24
GREAT FALLS    FLURRIES   3  -2  79 NE6       30.12S WCI  -8
MALMSTROM AFB  FLURRIES   2  -2  84 N6        30.15S WCI -10
HELENA         CLOUDY     8   1  73 W8        30.04S WCI  -4
AUGUSTA        FLURRIES  -1  -4  85 NE13      30.04S WCI -19
BOWMANS CRNR   FLURRIES   2  -1  88 NE8       30.03S WCI -12
CHOTEAU          N/A      1  -4  78 MISG      30.13R
CONRAD           N/A     -1  -6  79 NW5       30.13S
FAIRFIELD      FLURRIES   1  -4  81 N6        30.10S WCI -11
POWER          FLURRIES  -1  -5  82 N8        30.11S WCI -15
RAYNESFORD     FLURRIES   1  -2  87 NW5       30.09R
ULM            FLURRIES   3   0  85 NE7       30.13R WCI  -9
$$

MTZ011-013-016-021-045-047-050-051-061400-
NORTH CENTRAL MONTANA

CITY           SKY/WX    TMP DP  RH WIND       PRES   REMARKS
HAVRE          FLURRIES  -1  -7  75 NW12      30.23R WCI -18
LEWISTOWN      CLOUDY     2  -2  83 W9        30.05S WCI -13
N BAR RANCH      N/A      3  -4  72 W23G30    29.98S WCI -19
CHINOOK          N/A      0  -6  78 W12G17    30.23R WCI -18
DENTON           N/A      0  -4  83 NW12G30   30.07R WCI -17
GEYSER         MOCLDY     2  -2  82 W18G26    30.05R WCI -18
GRASS RANGE    MOCLDY     5   0  79 W20       30.01S WCI -15
JUDITH GAP     FLURRIES   2  -1  85 N15G21    29.97S WCI -17
ROY              N/A      1  -2  86 MISG      30.06S
STANFORD       CLOUDY    -3  -5  90 W2        30.02S
WINIFRED       MOCLDY     1  -2  88 MISG      30.09R
$$

MTZ017>020-022>027-061-062-061400-
NORTHEAST MONTANA

CITY           SKY/WX    TMP DP  RH WIND       PRES   REMARKS
GLASGOW        PTCLDY     1  -6  72 NW21G29   30.12R WCI -21
JORDAN           N/A      2  -5  72 NW14      30.11R WCI -16
SIDNEY         FLURRIES   4  -3  73 NW24G30   30.04R WCI -19
WOLF POINT     CLOUDY     2  -7  66 W13       30.13R WCI -15
PLENTYWOOD       N/A      1  -2  85 NW24G30   29.97R WCI -22
POPLAR           N/A      1  -8  66 W17       30.09S WCI -19
SCOBEY           N/A      0 -11  60 NW18      30.01R WCI -21
$$

MTZ028>42-056>058-061400-
SOUTHCENTRAL AND SOUTHEAST MONTANA

CITY           SKY/WX    TMP DP  RH WIND       PRES   REMARKS
BAKER          CLOUDY     2  -3  80 W20G29    29.98R WCI -19
BILLINGS       FLURRIES   5   2  87 NE5       30.05R
LIVINGSTON     CLEAR      4  -1  80 E8        29.94S WCI  -9
MILES CITY     CLOUDY     3  -4  72 NW12      30.10R WCI -13
BIG TIMBER     CLOUDY     7   1  78 NE7       29.99S WCI  -5
EKALAKA          N/A     -1  -9  69 W15       29.92F WCI -21
FORSYTH          N/A      3   0  85 W5        30.12R
HARLOWTON        N/A      3  -2  81 N22       29.97S WCI -19
LAUREL           N/A      6  -2  70 N6        30.02R WCI  -4
$$

REGIONAL REPORTS...DAKOTAS

CITY           SKY/WX    TMP DP  RH WIND       PRES   REMARKS
WILLISTON      CLOUDY     6  -1  73 NW18G25   30.00S WCI -13
MINOT          SNOW      10   7  87 W39G48    29.76R VSB 1/4 WCI -15
DICKINSON      MIX PCPN   3  -2  79 NW30G39   29.87R WCI -22
BEACH          LGT SNOW   1   0  92 NW23G29   30.00R WCI -21
CROSBY         LGT SNOW   7   3  85 NW30G37   29.96R WCI -17
TIOGA          LGT SNOW   5   5 100 NW28G36   29.90S WCI -18
WATFORD CITY   CLOUDY     5   0  78 NW20G32   29.97R FOG     WCI -15
BISMARCK       LGT SNOW  10   8  92 NW25G39   29.80R VSB 1   WCI -11
GRAND FORKS    LGT SNOW  30  27  88 NW24      29.30S VSB 1   WCI  16
FARGO          LGT SNOW  30  26  85 W24       29.38S FOG     WCI  16
BUFFALO SD       N/A      3  -3  76 NW24G33   29.87R WCI -20
RAPID CITY     CLEAR     10   1  67 N14       29.93S WCI  -6
$$

REGIONAL REPORTS...WYOMING/IDAHO/WASHINGTON

CITY           SKY/WX    TMP DP  RH WIND       PRES   REMARKS
GILLETTE       CLOUDY    -1  -4  87 W6        29.96S WCI -13
SHERIDAN       FLURRIES   3  -1  83 W7        30.01S WCI  -9
BUFFALO WY     FLURRIES   6   1  80 NW5       29.94R
CODY           CLOUDY    -1  -5  82 S3        29.92S
YELLOWSTONE LA   N/A     -4  -7  87 NW3       29.78F
IDAHO FALLS    CLEAR      6   0  76 N7        29.90F WCI  -6
SALMON         CLOUDY     7   1  78 CALM      29.93F
BOISE          CLOUDY    24  14  65 E13       29.90S WCI  12
SPOKANE        CLOUDY    24  16  71 N8        29.94S WCI  15
$$

REGIONAL REPORTS...ALBERTA

CITY           SKY/WX    TMP DP  RH WIND       PRES   REMARKS
EDMONTON       CLOUDY    -4 -13  65 NW8       30.31R WCI -19
CALGARY        MOCLDY    -6 -15  65 N16       30.17S WCI -28
LETHBRIDGE     FLURRIES  -4 -11  71 N9        30.23S WCI -20
MEDICINE HAT   FLURRIES  -4  -8  84 W9        30.26S WCI -20
CARDSTON         N/A     -6 -11  77 NW1         N/A
MILK RIVER       N/A     -4  -9  77 N13G18      N/A  WCI -23
ONEFOUR          N/A     -4  -8  84 NW17        N/A  WCI -26
$$

REGIONAL REPORTS...SASKATCHEWAN

CITY           SKY/WX    TMP DP  RH WIND       PRES   REMARKS
SWIFT CURRENT  LGT SNOW  -4  -6  92 NW18      30.07S WCI -26
REGINA         FLURRIES   7   0  72 NW26G32   30.00R WCI -16
SASKATOON      FLURRIES   0  -6  78 NW18G24   30.14R WCI -22
VAL MARIE        N/A     -8 -13  77 NW13        N/A  WCI -28
ROCKGLEN         N/A     -4  -8  84 NW20G29     N/A  WCI -27
$$




USA.gov is the U.S. government's official web portal to all federal, state and local government web resources and services.